Regional Weather Roundup
Issued by NWS

Home | Current Version | Previous Version | Graphics & Text | Print | Product List | Glossary On
Versions: 1 2 3 4 5 6 7 8 9 10 11 12 13 14 15 16 17 18 19 20 21 22 23 24 25 26 27 28 29 30 31 32 33 34 35 36 37 38 39 40 41 42 43 44 45 46 47 48 49 50
288
ASUS43 KOAX 290510
RWRNE

WEATHER ROUNDUP FOR NEBRASKA
NATIONAL WEATHER SERVICE OMAHA NE
1200 AM CDT SUN MAY 29 2016

NOTES: SATELLITE DATA IS BEING USED TO AUGMENT CLOUD COVER ABOVE
       12000 FEET.
       "FAIR" INDICATES FEW OR NO CLOUDS BELOW 12,000 FEET WITH NO
       SIGNIFICANT WEATHER AND/OR OBSTRUCTIONS TO VISIBILITY.

  * THESE STATIONS DO NOT REPORT WEATHER SUCH AS RAIN...SNOW OR FOG.

NEZ001>004-019>022-054>056-290600-
NEBRASKA PANHANDLE

CITY           SKY/WX    TMP DP  RH WIND       PRES   REMARKS
SCOTTSBLUFF    CLEAR     54  46  74 E6        30.08R
ALLIANCE       CLEAR     49  46  90 N6        30.07S
CHADRON        CLEAR     47  45  93 CALM      30.07R
KIMBALL        PTCLDY    50  44  79 SE7       30.12S
SIDNEY         PTCLDY    50  46  86 N6        30.10S
$$

NEZ057>060-069>072-079>082-290600-
SOUTHWEST NEBRASKA

CITY           SKY/WX    TMP DP  RH WIND       PRES   REMARKS
NORTH PLATTE   CLOUDY    58  52  80 S7        30.03F
IMPERIAL       TSTM      59  51  75 MISG      30.11R
LEXINGTON      MOCLDY    59  51  75 W9G18     30.07R
MCCOOK         CLOUDY    62  52  69 N21G28    30.07R
OGALLALA       PTCLDY    54  50  86 CALM      30.06S
$$

NEZ005>010-023>029-035>040-094-290600-
NORTH CENTRAL NEBRASKA

CITY           SKY/WX    TMP DP  RH WIND       PRES   REMARKS
VALENTINE      CLOUDY    58  53  84 SW8       29.99F
AINSWORTH      CLOUDY    61  53  74 W5        30.02F
BROKEN BOW     CLOUDY    62  51  67 SW7       30.05R
O`NEILL        CLEAR     57  55  94 S3        30.00S
ORD            CLOUDY    57  55  93 CALM      30.01R
THEDFORD       MOCLDY    57  51  79 NW3       30.06R
$$

NEZ041-046>049-061>064-073>077-083>087-290600-
SOUTH CENTRAL NEBRASKA

CITY           SKY/WX    TMP DP  RH WIND       PRES   REMARKS
GRAND ISLAND   CLEAR     60  55  83 CALM      30.02R
AURORA         CLEAR     60  57  90 E6        30.01S
HASTINGS       CLEAR     60  55  83 CALM      30.02R
HEBRON         CLEAR     62  57  83 CALM      30.00S
HOLDREGE       CLEAR     63  52  68 N9G23     30.05R
KEARNEY *      PTCLDY    64  52  63 NW16G23   30.05R
YORK           CLEAR     59  57  94 NE5       30.01S
$$

NEZ011>018-030>034-042>045-290600-
NORTHEAST NEBRASKA

CITY           SKY/WX    TMP DP  RH WIND       PRES   REMARKS
NORFOLK        CLEAR     55  53  93 W5        29.99R
ALBION         CLEAR     55  53  92 CALM      30.01S
BLAIR          CLEAR     62  56  83 W7        29.98S
FREMONT        CLEAR     57  55  93 W3        29.99S
TEKAMAH        CLEAR     61  55  81 NW8       29.97R
WAYNE          CLEAR     56  55  95 W3        29.99R
$$

NEZ050>053-065>068-078-088>093-290600-
SOUTHEAST NEBRASKA

CITY           SKY/WX    TMP DP  RH WIND       PRES   REMARKS
LINCOLN        CLEAR     60  57  89 N5        30.00R
OMAHA EPPLEY   CLEAR     63  55  75 NW8       29.97R
BEATRICE       CLEAR     61  58  90 CALM      30.00R
FALLS CITY     CLEAR     66  59  78 SW7       29.97S
NEBRASKA CITY  CLEAR     63  57  81 NW5       29.99R
PLATTSMOUTH    CLEAR     63  58  84 NW5       29.99R
$$

NEZ044-045-051>053-067-290600-
OMAHA AREA

CITY           SKY/WX    TMP DP  RH WIND       PRES   REMARKS
OMAHA EPPLEY   CLEAR     63  55  75 NW8       29.97R
BLAIR          CLEAR     62  56  83 W7        29.98S
FREMONT        CLEAR     57  55  93 W3        29.99S
MILLARD        CLEAR     62  56  80 CALM      29.98S
OFFUTT AFB     CLEAR     60  56  87 W5        29.97R
PLATTSMOUTH    CLEAR     63  58  84 NW5       29.99R
WAHOO          FAIR      61  56  84 W5        29.99S
$$




USA.gov is the U.S. government's official web portal to all federal, state and local government web resources and services.